2023-121C (57628 NORAD) Tracking and Keplerian Element Data

This shows tracking and keplerian element data for the satellite.

Feedback or suggestion? Click here.




ElementValue
Catalog57628
Name2023-121C
Epoch Orbit189
Epoch Day239.15695183
Epoch Year2023
RAAN297.595
Inclination45.0003
Eccentricity0.0006566
Argument of Perigee317.615
Mean Anonmoly42.4198
Mean Motion14.58047617
Decay Rate8.8E-06
L11 57628U 23121C 23239.15695183 .00000880 00000+0 22306-3 0 9995
L22 57628 45.0003 297.5950 0006566 317.6150 42.4198 14.58047617 1894



Live tracking and technical data element details for 2023-121C (NORAD 57628). 2023-121C can be tracked NOW for your location showing map with azimuth and elevation plus other details from your city location.







IsCatalogInMostPopularTable: catalog: 57628, numindb: 19
Update: records affected: 1



GetName: 57628 2023-121C

Hit Count: updated at: Mon, 04 Dec 2023 03:36:11 GMT